Tracking 20241 objects as of 27-Jan-2020
HD Live streaming from Space Station
objects crossing your sky now

COSMOS 1470

Track COSMOS 1470 now!
10-day predictions
COSMOS 1470 is classified as:


NORAD ID: 14147
Int'l Code: 1983-061A
Perigee: 529.4 km
Apogee: 549.3 km
Inclination: 82.5 °
Period: 95.3 minutes
Semi major axis: 6910 km
RCS: 8.3388 m2 (large)
Launch date: June 23, 1983
Source: Commonwealth of Independent States (former USSR) (CIS)
Launch site: PLESETSK MISSILE AND SPACE COMPLEX (PKMTR)
aabbcc
Your satellite tracking list
Your tracking list is empty




NASA's NSSDC Master Catalog

Two Line Element Set (TLE):
1 14147U 83061A   20026.38393286 +.00000550 +00000-0 +30765-4 0  9992
2 14147 082.4822 182.4312 0014381 217.4968 142.5260 15.11306840748479
Source of the keplerian elements: AFSPC